Location: Charlotte
(35.2269°N, 80.8433°W)
Time: 15:04:59
(UTC-04:00)

ISS - Visible Passes

Search period start: 27 June 2017 00:00
Search period end: 07 July 2017 00:00
Orbit: 401 x 408 km, 51.6° (Epoch: 28 June)

Date Brightness Start Highest point End Pass type
(mag) Time Alt. Az. Time Alt. Az. Time Alt. Az.
03 Jul -1.5 04:58:57 10° S 05:01:10 17° SE 05:03:24 10° E visible
04 Jul -3.8 05:41:52 10° SW 05:45:05 75° NW 05:48:22 10° NE visible
05 Jul -3.3 04:51:27 27° SSW 04:52:51 48° SE 04:56:01 10° ENE visible
06 Jul -1.8 04:01:15 21° ESE 04:01:15 21° ESE 04:03:16 10° ENE visible
06 Jul -2.4 05:34:08 10° W 05:37:02 29° NW 05:39:56 10° NNE visible
